STARLINK-5260, 55275

Orbit data source: Space-Track

STARLINK-5260, 55275 is a payload satellite owned by SpaceX/Seattle (US) in LEO that was launched on Thu, 19 Jan 2023 UTC via an FALCON 9 launch vehicle from the Air Force Western Test Range (AFWTR). Payload-class satellites include a variety of spacecraft equipped with specific instruments for various scientific and technological missions. These include communications satellites like Starlink; space stations such as the ISS; scientific satellites like the Hubble; Earth observation satellites from companies like Planet Labs, Umbra, and HawkEye 360; GPS; miniature CubeSats for education and research; and military/defense satellites.

Loading next visibility...
Identifier
55275, 2023-010G
Orbit
LEO
Country
Flag of USUS
Related business
Manufacturer
SpaceX/Seattle
Mission
Operational Commercial Communications
Bus & Motor
STARLINK, Unknown motor
Mass
305 kg wet, ~290 kg dry
Launch date (UTC)
2023-01-19 (3 years ago)
Launch vehicle
FALCON 9
Launch site
Air Force Western Test Range (AFWTR)
Object type
Payload
Rocket body
Debris
Shape & HBR
Box + 1 Pan, 10.1 m
Radar Cross Section
13.562 m², Large (>1 m²)

Expand to show TLE details & history
Last TLE update: 2 days ago

TLE from 2 days ago
0 STARLINK-5260
1 55275U 23010G   26171.28143863  .00002154  00000-0  18822-3 0  9998
2 55275  70.0011 125.8998 0002884 265.6967  94.3862 14.98335864188640
Epoch: 2026-06-20T06:45Z
TLE epoch observation values (Epoch: 2026-06-20T06:45:16.297Z)
Latitude
-0.00009°
Longitude
116.08355°
Altitude
574.616 km
Speed
7.574 km/s
True Right ascension
08h 23m 35s
True Declination
0° 00' 00"
Sunlit
Object was in daylight at epoch
Visualization orbit readout
Latitude
Unknown
Longitude
Unknown
Altitude
Unknown
Speed
Unknown
Apparent Right ascension
Unknown
Apparent Declination
Unknown
Sunlit
N/A
Visualization observer readout
Local Sidereal Time
21:32:26
Azimuth
Unknown
Elevation
Unknown
Doppler factor
Unknown
Orbital elements
Apogee altitude
571.99 km
Perigee altitude
567.982 km
Semi-major axis
6,948.123 km
Eccentricity
0.00029
Inclination
70.0011°
RAAN
125.8998°
Arg. of periapsis
265.6967°
True anomaly
94.41915°
Mean anomaly
94.3862°
Eccentric anomaly
94.40268°
Mean motion
3.7475 °/min
Orbital period
96.06 mins
BSTAR
0.00018822
Loading maneuver chart data...
Computing Atmospheric mass density...
Loading historical data...
Loading historical data...
Loading historical data...
Loading historical data...
Loading historical data...
Loading historical data...
Loading historical data...

Documentation

Showing up to 5 results
|